View from above orbital plane
|
View from above satellite
|
Ground track
|
The orbit data is extracted from the following two-line orbital elements,
1 00059U 60013B 21025.63272950 .00000075 00000-0 -14660-4 0 9992
2 00059 28.2477 156.9153 0189274 350.9827 8.7348 13.52982344976622
Epoch (UTC): | 25 January 2021 15:11:07 |
Eccentricity: | 0.0189274 |
inclination: | 28.2477° |
perigee height: | 920 km |
apogee height: | 1202 km |
right ascension of ascending node: | 156.9153° |
argument of perigee: | 350.9827° |
revolutions per day: | 13.52982344 |
mean anomaly at epoch: | 8.7348° |
orbit number at epoch: | 97662 |
The dashed part of the orbit path shows where the satellite is in the earth's shadow,
|
|